Batman, Turkey

5:57 PM EEST on August 25, 2016 (GMT +0300)
Batman Air Base

Weather History for LTCJ - July, 2013

Change the Weather History Date:

Saturday, July 6, 2013

  Actual Average (LTCC) Record (LTCC)
Temperature  
Mean Temperature 82 °F -  
Max Temperature 104 °F 97 °F 107 °F (2000)
Min Temperature 59 °F 69 °F 62 °F (2006)
Cooling Degree Days 16    
Growing Degree Days 32 (Base 50)    
Moisture  
Dew Point 44 °F    
Average Humidity 32    
Maximum Humidity 77    
Minimum Humidity 9    
Precipitation  
Precipitation 0.00 in - - ()
Sea Level Pressure  
Sea Level Pressure 29.65 in    
Wind  
Wind Speed 4 mph ()    
Max Wind Speed 9 mph    
Max Gust Speed -    
Averages and records for this station are not official NWS values.
T = Trace of Precipitation, MM = Missing Value Source: Averaged Metar Reports

Daily Weather History Graph

Daily Weather History Graph

Search for Another Location

Airport or City:

Trip Planner

Search our weather history database for the weather conditions in past years. The results will help you decide how hot, cold, wet, or windy it might be!

Date:

Astronomy

Jul. 06, 2013 Rise Set
Actual Time 4:59 AM EEST 7:40 PM EEST
Civil Twilight 4:28 AM EEST 8:12 PM EEST
Nautical Twilight 3:49 AM EEST 8:50 PM EEST
Astronomical Twilight 3:05 AM EEST 9:34 PM EEST
Moon 3:27 AM EEST (7/6) 6:06 PM EEST (7/6)
Length of Visible Light 15h 43m
Length of Day
14h 41m
Waning Crescent, 3% of the Moon is Illuminated
Jul 6
Waning Crescent
Jul 8
New
Jul 16
First Quarter
Jul 22
Full
Jul 29
Last Quarter

Hourly Weather History & Observations

Time (EEST) Temp. Dew Point Humidity Pressure Visibility Wind Dir Wind Speed Gust Speed Precip Events Conditions
12:20 AM 73.4 °F 46.4 °F 38% 29.65 in - Variable 3.5 mph - N/A   Clear
1:20 AM 69.8 °F 51.8 °F 53% 29.65 in - WSW 2.3 mph - N/A   Clear
1:50 AM 68.0 °F 46.4 °F 46% 29.65 in - Calm Calm - N/A   Clear
2:20 AM 66.2 °F 48.2 °F 52% 29.65 in - Variable 2.3 mph - N/A   Clear
2:50 AM 62.6 °F 51.8 °F 68% 29.65 in - NNE 6.9 mph - N/A   Clear
3:20 AM 60.8 °F 50.0 °F 68% 29.65 in - NNE 6.9 mph - N/A   Clear
3:50 AM 60.8 °F 51.8 °F 72% 29.65 in - NNE 6.9 mph - N/A   Clear
4:20 AM 60.8 °F 51.8 °F 72% 29.65 in - NE 6.9 mph - N/A   Clear
4:50 AM 60.8 °F 51.8 °F 72% 29.68 in - NE 5.8 mph - N/A   Clear
5:20 AM 59.0 °F 51.8 °F 77% 29.68 in - North 5.8 mph - N/A   Clear
5:50 AM 60.8 °F 51.8 °F 72% 29.68 in - NE 6.9 mph - N/A   Clear
6:20 AM 66.2 °F 48.2 °F 52% 29.68 in - North 5.8 mph - N/A   Clear
6:50 AM 69.8 °F 44.6 °F 40% 29.68 in - NNE 5.8 mph - N/A   Clear
7:20 AM 75.2 °F 48.2 °F 38% 29.68 in - Variable 2.3 mph - N/A   Clear
7:50 AM 77.0 °F 48.2 °F 36% 29.68 in - NW 3.5 mph - N/A   Clear
8:20 AM 80.6 °F 42.8 °F 26% 29.68 in - Variable 2.3 mph - N/A   Clear
8:50 AM 84.2 °F 41.0 °F 22% 29.71 in - Variable 3.5 mph - N/A   Clear
9:20 AM 86.0 °F 39.2 °F 19% 29.68 in - SSW 5.8 mph - N/A   Clear
9:50 AM 87.8 °F 41.0 °F 19% 29.68 in - SW 8.1 mph - N/A   Clear
10:20 AM 89.6 °F 44.6 °F 21% 29.68 in - SSW 8.1 mph - N/A   Clear
10:50 AM 91.4 °F 42.8 °F 18% 29.68 in - SW 8.1 mph - N/A   Clear
11:20 AM 93.2 °F 46.4 °F 20% 29.68 in - SSW 4.6 mph - N/A   Clear
11:50 AM 96.8 °F 42.8 °F 16% 29.68 in - Variable 4.6 mph - N/A   Clear
12:20 PM 98.6 °F 37.4 °F 12% 29.65 in - South 4.6 mph - N/A   Clear
12:50 PM 100.4 °F 37.4 °F 11% 29.65 in - West 4.6 mph - N/A   Clear
1:20 PM 100.4 °F 33.8 °F 10% 29.65 in - Variable 3.5 mph - N/A   Clear
1:50 PM 102.2 °F 37.4 °F 11% 29.65 in - Variable 4.6 mph - N/A   Clear
2:20 PM 102.2 °F 33.8 °F 9% 29.65 in - West 5.8 mph - N/A   Clear
2:50 PM 102.2 °F 39.2 °F 11% 29.62 in - WSW 6.9 mph - N/A   Clear
3:20 PM 102.2 °F 37.4 °F 11% 29.62 in - West 8.1 mph - N/A   Clear
3:50 PM 104.0 °F 35.6 °F 9% 29.62 in - WSW 9.2 mph - N/A   Clear
4:20 PM 104.0 °F 37.4 °F 10% 29.62 in - West 8.1 mph - N/A   Clear
4:50 PM 104.0 °F 39.2 °F 11% 29.59 in - West 6.9 mph - N/A   Clear
5:20 PM 102.2 °F 37.4 °F 11% 29.59 in - West 8.1 mph - N/A   Clear
5:50 PM 100.4 °F 39.2 °F 12% 29.59 in - West 6.9 mph - N/A   Clear
6:20 PM 100.4 °F 37.4 °F 11% 29.62 in - WSW 5.8 mph - N/A   Clear
6:50 PM 96.8 °F 39.2 °F 14% 29.62 in - SW 4.6 mph - N/A   Clear
7:20 PM 93.2 °F 48.2 °F 21% 29.62 in - SSW 4.6 mph - N/A   Clear
7:50 PM 89.6 °F 51.8 °F 27% 29.62 in - South 3.5 mph - N/A   Clear
8:20 PM 87.8 °F 44.6 °F 22% 29.62 in - South 3.5 mph - N/A   Clear
8:50 PM 82.4 °F 44.6 °F 26% 29.65 in - Calm Calm - N/A   Clear
9:20 PM 77.0 °F 42.8 °F 29% 29.65 in - Variable 1.2 mph - N/A   Clear
9:50 PM 73.4 °F 51.8 °F 47% 29.65 in - NNE 4.6 mph - N/A   Clear
10:20 PM 75.2 °F 42.8 °F 31% 29.68 in - NE 6.9 mph - N/A   Clear
10:50 PM 71.6 °F 51.8 °F 50% 29.68 in - North 4.6 mph - N/A   Clear
11:20 PM 73.4 °F 44.6 °F 36% 29.68 in - ENE 6.9 mph - N/A   Clear
11:50 PM 75.2 °F 41.0 °F 29% 29.68 in - South 8.1 mph - N/A   Clear